• In Moldova, Republic
  • List of Countries
  • For 7 days
  • Water Temperature
  • Satellite Maps
  • Weather Map
  • Weather Widgets
  • user-avatar
    Login

    Hourly Weather Malanje

    Today, 21 May, Monday

    Time Temperature Precipitation Wind Pressure Humidity
    00:00 +20°C° 0.2 mm 1 mps 665 mmHg 91%
    01:00 +20°C° 0.2 mm 1 mps 665 mmHg 94%
    02:00 +20°C° 0.7 mm 1 mps 665 mmHg 95%
    03:00 +20°C° 0.7 mm 1 mps 665 mmHg 95%
    04:00 +17°C° 0.7 mm 0 mps 665 mmHg 96%
    05:00 +18°C° 0.2 mm 0 mps 665 mmHg 95%
    06:00 +20°C° 0.2 mm 1 mps 665 mmHg 94%
    07:00 +20°C° 0.2 mm 1 mps 666 mmHg 93%
    08:00 +22°C° 0.8 mm 1 mps 666 mmHg 87%
    09:00 +24°C° 0.8 mm 1 mps 667 mmHg 81%
    10:00 +25°C° 0.8 mm 1 mps 667 mmHg 75%
    11:00 +26°C° 1.3 mm 1 mps 667 mmHg 72%
    12:00 +27°C° 1.3 mm 1 mps 667 mmHg 70%
    13:00 +28°C° 1.3 mm 1 mps 666 mmHg 67%
    14:00 +27°C° 1.7 mm 1 mps 666 mmHg 69%
    15:00 +26°C° 1.7 mm 1 mps 665 mmHg 71%
    16:00 +26°C° 1.7 mm 1 mps 664 mmHg 73%
    17:00 +24°C° 0.6 mm 1 mps 664 mmHg 78%
    18:00 +23°C° 0.6 mm 1 mps 665 mmHg 83%
    19:00 +22°C° 0.6 mm 1 mps 665 mmHg 88%
    20:00 +22°C° 0.4 mm 1 mps 665 mmHg 89%
    21:00 +21°C° 0.4 mm 1 mps 665 mmHg 90%
    22:00 +21°C° 0.4 mm 1 mps 666 mmHg 90%
    23:00 +21°C° 0.1 mm 1 mps 666 mmHg 91%

    Tomorrow, 22 May, Tuesday

    Time Temperature Precipitation Wind Pressure Humidity
    00:00 +20°C° 0.1 mm 1 mps 666 mmHg 91%
    01:00 +20°C° 0.1 mm 1 mps 665 mmHg 92%
    02:00 +20°C° 0 mm 1 mps 665 mmHg 92%
    03:00 +20°C° 0 mm 1 mps 665 mmHg 93%
    04:00 +17°C° 0 mm 0 mps 665 mmHg 93%
    05:00 +18°C° 0 mm 0 mps 665 mmHg 92%
    06:00 +18°C° 0 mm 0 mps 666 mmHg 91%
    07:00 +18°C° 0 mm 0 mps 666 mmHg 90%
    08:00 +22°C° 0.1 mm 1 mps 667 mmHg 81%
    09:00 +24°C° 0.1 mm 1 mps 667 mmHg 72%
    10:00 +27°C° 0.1 mm 1 mps 668 mmHg 63%
    11:00 +28°C° 0 mm 2 mps 668 mmHg 56%
    12:00 +29°C° 0 mm 2 mps 667 mmHg 48%
    13:00 +30°C° 0 mm 2 mps 667 mmHg 41%
    14:00 +30°C° 0 mm 2 mps 666 mmHg 43%
    15:00 +30°C° 0 mm 1 mps 666 mmHg 44%
    16:00 +30°C° 0 mm 1 mps 666 mmHg 46%
    17:00 +27°C° 0 mm 1 mps 666 mmHg 50%
    18:00 +23°C° 0 mm 0 mps 665 mmHg 54%
    19:00 +21°C° 0 mm 0 mps 665 mmHg 59%
    20:00 +21°C° 0 mm 0 mps 666 mmHg 59%
    21:00 +20°C° 0 mm 0 mps 666 mmHg 60%
    22:00 +20°C° 0 mm 0 mps 667 mmHg 60%
    23:00 +19°C° 0 mm 0 mps 666 mmHg 61%

    Day after tomorrow, 23 May, Wednesday

    Time Temperature Precipitation Wind Pressure Humidity
    00:00 +19°C° 0 mm 0 mps 666 mmHg 62%
    01:00 +19°C° 0 mm 0 mps 666 mmHg 62%
    02:00 +19°C° 0 mm 0 mps 666 mmHg 62%
    03:00 +21°C° 0 mm 1 mps 666 mmHg 61%
    04:00 +21°C° 0 mm 1 mps 666 mmHg 61%
    05:00 +21°C° 0 mm 1 mps 666 mmHg 62%
    06:00 +21°C° 0 mm 1 mps 667 mmHg 64%
    07:00 +21°C° 0 mm 1 mps 667 mmHg 66%
    08:00 +23°C° 0 mm 2 mps 668 mmHg 58%
    09:00 +25°C° 0 mm 2 mps 669 mmHg 50%
    10:00 +27°C° 0 mm 3 mps 669 mmHg 43%
    11:00 +28°C° 0 mm 3 mps 669 mmHg 40%
    12:00 +29°C° 0 mm 3 mps 668 mmHg 37%
    13:00 +30°C° 0 mm 2 mps 668 mmHg 35%
    14:00 +30°C° 0 mm 2 mps 667 mmHg 37%
    15:00 +30°C° 0 mm 1 mps 667 mmHg 38%
    16:00 +30°C° 0 mm 1 mps 666 mmHg 40%
    17:00 +27°C° 0 mm 1 mps 666 mmHg 44%
    18:00 +23°C° 0 mm 0 mps 666 mmHg 49%
    19:00 +21°C° 0 mm 0 mps 666 mmHg 53%
    20:00 +20°C° 0 mm 0 mps 666 mmHg 54%
    21:00 +20°C° 0 mm 0 mps 667 mmHg 55%
    22:00 +20°C° 0 mm 0 mps 667 mmHg 56%
    23:00 +19°C° 0 mm 0 mps 667 mmHg 56%

    24 May, Thursday

    Time Temperature Precipitation Wind Pressure Humidity
    00:00 +21°C° 0 mm 1 mps 666 mmHg 57%
    01:00 +21°C° 0 mm 1 mps 666 mmHg 58%
    02:00 +21°C° 0 mm 1 mps 666 mmHg 58%
    03:00 +21°C° 0 mm 1 mps 666 mmHg 58%
    04:00 +20°C° 0 mm 1 mps 666 mmHg 58%
    05:00 +20°C° 0 mm 1 mps 666 mmHg 60%
    06:00 +20°C° 0 mm 1 mps 666 mmHg 61%
    07:00 +20°C° 0 mm 1 mps 667 mmHg 63%
    08:00 +21°C° 0 mm 2 mps 667 mmHg 56%
    09:00 +25°C° 0 mm 2 mps 668 mmHg 49%
    10:00 +27°C° 0 mm 3 mps 668 mmHg 42%
    11:00 +28°C° 0 mm 2 mps 668 mmHg 40%
    12:00 +30°C° 0 mm 2 mps 667 mmHg 37%
    13:00 +31°C° 0 mm 2 mps 667 mmHg 34%
    14:00 +30°C° 0 mm 2 mps 666 mmHg 37%
    15:00 +30°C° 0 mm 1 mps 666 mmHg 39%
    16:00 +30°C° 0 mm 1 mps 666 mmHg 41%
    17:00 +28°C° 0 mm 1 mps 665 mmHg 46%
    18:00 +26°C° 0 mm 1 mps 665 mmHg 50%
    19:00 +23°C° 0 mm 1 mps 665 mmHg 55%
    20:00 +23°C° 0 mm 1 mps 666 mmHg 55%
    21:00 +22°C° 0 mm 1 mps 666 mmHg 56%
    22:00 +22°C° 0 mm 1 mps 666 mmHg 57%
    23:00 +21°C° 0 mm 1 mps 666 mmHg 57%

    25 May, Friday

    Time Temperature Precipitation Wind Pressure Humidity
    00:00 +21°C° 0 mm 1 mps 665 mmHg 58%
    01:00 +21°C° 0 mm 1 mps 665 mmHg 58%
    02:00 +20°C° 0 mm 1 mps 665 mmHg 60%
    03:00 +20°C° 0 mm 1 mps 665 mmHg 61%
    04:00 +19°C° 0 mm 1 mps 665 mmHg 63%
    05:00 +19°C° 0 mm 1 mps 665 mmHg 65%
    06:00 +19°C° 0 mm 1 mps 665 mmHg 66%
    07:00 +19°C° 0 mm 1 mps 666 mmHg 68%
    08:00 +21°C° 0 mm 2 mps 666 mmHg 59%
    09:00 +24°C° 0 mm 2 mps 667 mmHg 51%
    10:00 +27°C° 0 mm 3 mps 667 mmHg 43%
    11:00 +28°C° 0 mm 2 mps 667 mmHg 40%
    12:00 +30°C° 0 mm 2 mps 666 mmHg 36%
    13:00 +31°C° 0 mm 2 mps 666 mmHg 33%
    14:00 +31°C° 0 mm 2 mps 665 mmHg 34%
    15:00 +31°C° 0 mm 1 mps 665 mmHg 35%
    16:00 +30°C° 0 mm 1 mps 664 mmHg 36%
    17:00 +28°C° 0 mm 1 mps 664 mmHg 41%
    18:00 +25°C° 0 mm 1 mps 664 mmHg 45%
    19:00 +23°C° 0 mm 1 mps 664 mmHg 50%
    20:00 +22°C° 0 mm 1 mps 665 mmHg 51%
    21:00 +22°C° 0 mm 1 mps 665 mmHg 52%
    22:00 +21°C° 0 mm 1 mps 665 mmHg 52%
    23:00 +21°C° 0 mm 1 mps 665 mmHg 53%

    26 May, Saturday

    Time Temperature Precipitation Wind Pressure Humidity
    00:00 +20°C° 0 mm 1 mps 664 mmHg 54%
    01:00 +20°C° 0 mm 1 mps 664 mmHg 55%
    02:00 +19°C° 0 mm 1 mps 664 mmHg 56%
    03:00 +19°C° 0 mm 1 mps 664 mmHg 58%
    04:00 +18°C° 0 mm 1 mps 664 mmHg 59%
    05:00 +18°C° 0 mm 1 mps 665 mmHg 61%
    06:00 +18°C° 0 mm 1 mps 665 mmHg 62%
    07:00 +17°C° 0 mm 2 mps 666 mmHg 64%
    08:00 +20°C° 0 mm 2 mps 666 mmHg 58%
    09:00 +24°C° 0 mm 3 mps 667 mmHg 51%
    10:00 +27°C° 0 mm 3 mps 667 mmHg 44%
    11:00 +28°C° 0 mm 3 mps 667 mmHg 41%
    12:00 +30°C° 0 mm 3 mps 666 mmHg 38%
    13:00 +31°C° 0 mm 2 mps 666 mmHg 35%
    14:00 +31°C° 0 mm 2 mps 665 mmHg 35%
    15:00 +31°C° 0 mm 1 mps 665 mmHg 36%
    16:00 +30°C° 0 mm 1 mps 665 mmHg 36%
    17:00 +28°C° 0 mm 1 mps 664 mmHg 41%
    18:00 +26°C° 0 mm 1 mps 664 mmHg 45%
    19:00 +21°C° 0 mm 0 mps 664 mmHg 50%
    20:00 +23°C° 0 mm 1 mps 665 mmHg 51%
    21:00 +22°C° 0 mm 1 mps 665 mmHg 52%
    22:00 +21°C° 0 mm 1 mps 665 mmHg 53%
    23:00 +21°C° 0 mm 1 mps 665 mmHg 53%
    Show more